TimeEST,TemperatureF,Dew PointF,Humidity,Sea Level PressureIn,VisibilityMPH,Wind Direction,Wind SpeedMPH,Gust SpeedMPH,PrecipitationIn,Events,Conditions,WindDirDegrees,DateUTC
12:45 AM,62.6,60.8,94,30.18,2.5,NNE,12.7,20.7,N/A,,Overcast,20,2012-11-14 05:45:00
12:53 AM,63.0,61.0,93,30.18,4.0,NE,11.5,21.9,N/A,,Overcast,40,2012-11-14 05:53:00
1:47 AM,60.8,60.8,100,30.18,2.5,NE,10.4,23.0,N/A,,Overcast,40,2012-11-14 06:47:00
1:53 AM,61.0,60.1,97,30.18,3.0,NE,13.8,20.7,N/A,,Overcast,40,2012-11-14 06:53:00
2:53 AM,61.0,59.0,93,30.18,5.0,NNE,9.2,17.3,N/A,,Overcast,30,2012-11-14 07:53:00
3:16 AM,60.8,59.0,94,30.18,5.0,NNE,10.4,19.6,N/A,,Overcast,20,2012-11-14 08:16:00
3:53 AM,61.0,60.1,97,30.20,3.0,NNE,11.5,-,N/A,,Overcast,30,2012-11-14 08:53:00
4:03 AM,60.8,60.8,100,30.20,2.0,NNE,12.7,19.6,0.00,Rain,Light Rain,30,2012-11-14 09:03:00
4:19 AM,60.8,60.8,100,30.20,2.0,NNE,11.5,-,0.00,,Overcast,20,2012-11-14 09:19:00
4:53 AM,61.0,60.1,97,30.19,2.5,NE,13.8,20.7,0.00,Rain,Light Rain,40,2012-11-14 09:53:00
5:46 AM,60.8,60.8,100,30.20,3.0,NNE,13.8,19.6,0.00,Rain,Light Rain,30,2012-11-14 10:46:00
5:53 AM,61.0,60.1,97,30.20,2.5,NNE,9.2,19.6,0.00,Rain,Light Rain,30,2012-11-14 10:53:00
6:09 AM,60.8,60.8,100,30.20,3.0,NNE,11.5,19.6,0.00,Rain,Light Rain,20,2012-11-14 11:09:00
6:19 AM,60.8,60.8,100,30.21,2.5,NNE,10.4,-,0.00,Rain,Light Rain,20,2012-11-14 11:19:00
6:53 AM,61.0,61.0,100,30.22,2.0,NNE,11.5,18.4,0.01,Rain,Light Rain,30,2012-11-14 11:53:00
7:06 AM,60.8,60.8,100,30.23,3.0,NNE,10.4,17.3,0.00,Rain,Light Rain,20,2012-11-14 12:06:00
7:19 AM,60.8,60.8,100,30.23,3.0,NNE,10.4,-,0.00,Rain,Light Rain,20,2012-11-14 12:19:00
7:53 AM,62.1,61.0,96,30.23,4.0,NNE,11.5,-,0.00,,Overcast,20,2012-11-14 12:53:00
8:21 AM,62.6,60.8,94,30.24,2.5,NNE,10.4,-,N/A,,Overcast,30,2012-11-14 13:21:00
8:30 AM,62.6,60.8,94,30.25,3.0,NNE,10.4,-,N/A,,Overcast,30,2012-11-14 13:30:00
8:53 AM,62.1,61.0,96,30.25,2.5,NNE,11.5,20.7,0.00,Rain,Light Rain,30,2012-11-14 13:53:00
9:20 AM,62.6,60.8,94,30.25,3.0,NNE,11.5,18.4,0.00,Rain,Light Rain,30,2012-11-14 14:20:00
9:53 AM,62.1,60.1,93,30.25,6.0,NNE,16.1,24.2,0.00,,Overcast,30,2012-11-14 14:53:00
10:53 AM,62.1,60.1,93,30.25,10.0,NNE,11.5,21.9,N/A,,Overcast,20,2012-11-14 15:53:00
11:53 AM,61.0,60.1,97,30.24,8.0,NE,16.1,24.2,N/A,,Overcast,40,2012-11-14 16:53:00
12:53 PM,61.0,59.0,93,30.22,7.0,NNE,16.1,20.7,N/A,,Overcast,30,2012-11-14 17:53:00
1:53 PM,60.1,59.0,96,30.20,6.0,NNE,15.0,24.2,N/A,,Overcast,30,2012-11-14 18:53:00
2:53 PM,59.0,57.9,96,30.20,4.0,NNE,11.5,24.2,N/A,,Overcast,30,2012-11-14 19:53:00
3:26 PM,59.0,57.2,94,30.19,3.0,NNE,12.7,20.7,N/A,,Overcast,30,2012-11-14 20:26:00
3:43 PM,57.2,57.2,100,30.19,2.5,NNE,13.8,-,N/A,,Overcast,20,2012-11-14 20:43:00
3:53 PM,57.9,57.9,100,30.19,2.5,North,9.2,20.7,N/A,,Overcast,10,2012-11-14 20:53:00
4:09 PM,57.2,57.2,100,30.19,1.8,NNE,15.0,20.7,N/A,,Overcast,20,2012-11-14 21:09:00
4:53 PM,57.9,57.0,97,30.20,1.2,NNE,13.8,-,N/A,,Overcast,30,2012-11-14 21:53:00
5:34 PM,57.2,57.2,100,30.20,2.5,NNE,13.8,20.7,N/A,,Overcast,30,2012-11-14 22:34:00
5:53 PM,57.9,57.9,100,30.21,2.5,NNE,13.8,19.6,N/A,,Overcast,30,2012-11-14 22:53:00
6:53 PM,59.0,59.0,100,30.20,2.5,NNE,12.7,20.7,N/A,,Overcast,30,2012-11-14 23:53:00
7:16 PM,59.0,59.0,100,30.20,3.0,NNE,9.2,-,N/A,,Overcast,20,2012-11-15 00:16:00
7:53 PM,59.0,59.0,100,30.20,3.0,North,11.5,17.3,N/A,,Overcast,10,2012-11-15 00:53:00
8:53 PM,59.0,57.9,96,30.20,3.0,North,11.5,-,N/A,,Overcast,10,2012-11-15 01:53:00
9:14 PM,57.2,57.2,100,30.21,2.5,North,11.5,17.3,N/A,,Overcast,360,2012-11-15 02:14:00
9:53 PM,57.9,57.9,100,30.21,2.5,North,9.2,-,0.01,Rain,Light Rain,10,2012-11-15 02:53:00
10:10 PM,57.2,57.2,100,30.21,3.0,North,8.1,-,0.00,Rain,Light Rain,360,2012-11-15 03:10:00
10:53 PM,57.9,57.0,97,30.19,4.0,North,11.5,17.3,0.00,,Overcast,10,2012-11-15 03:53:00
11:53 PM,57.9,57.9,100,30.18,4.0,North,8.1,-,0.00,,Overcast,10,2012-11-15 04:53:00